Vorticity
7 8 8 7 6 5 5 5 6 6 5 5 6 6 6 6 5 5 6 8 9 9 10 10 10 10 10 10 10 9 9 10 9 10 10 8 9 7 8 8 7 7 7 7 6 7 6 7 7 7 8 7 8 7 8 9 7 9 10 10 11 14 9 8 13 0 4 11 2 14 22 12 10 14 20 23 14 7 13 10 3 2 -1 3 2 0 7 10
5 7 7 8 7 6 5 5 6 6 5 6 7 6 5 5 5 6 8 9 9 10 11 11 11 11 11 11 10 10 9 9 9 10 9 9 10 8 8 8 7 7 6 6 5 6 6 6 6 6 7 5 7 6 6 8 9 10 6 10 11 11 16 9 3 -2 4 6 -9 -13 -5 6 10 7 10 16 17 12 9 12 13 11 6 3 -2 2 13 11
6 5 6 7 7 6 6 5 6 6 6 7 6 5 4 4 6 8 9 10 11 11 11 11 11 11 11 12 11 11 10 9 9 9 9 10 10 9 8 8 7 6 5 6 5 6 6 6 6 5 6 5 7 6 6 7 9 9 5 9 11 13 21 10 -2 11 13 -3 2 -3 -25 -9 4 -5 3 8 10 12 8 12 18 17 6 4 5 0 4 5
8 7 6 6 6 6 6 6 7 7 7 6 5 4 3 6 8 10 11 11 11 11 12 11 11 12 12 13 12 12 10 9 9 8 9 11 10 8 7 7 6 6 4 4 4 4 5 6 6 5 5 5 5 5 5 5 5 8 7 6 11 11 10 3 -8 7 15 0 14 13 -14 0 12 4 12 11 10 13 12 13 20 25 11 8 14 4 -2 0
9 8 7 6 6 6 7 7 7 7 7 5 4 4 5 9 10 11 11 10 11 11 11 12 12 14 14 14 14 14 11 11 13 11 11 11 10 8 7 7 6 6 4 3 3 4 5 5 5 5 5 5 5 5 4 5 5 7 6 5 12 5 -5 1 -9 -17 -3 9 17 16 6 9 6 5 10 9 12 12 10 5 4 13 9 8 14 6 6 6
9 9 8 8 7 7 8 8 8 8 6 5 4 6 8 10 10 10 10 11 11 12 13 13 13 14 14 15 14 14 11 10 13 13 14 12 11 9 8 8 7 7 6 6 7 5 5 5 5 5 5 5 3 3 5 5 4 6 8 5 9 9 2 4 5 -0 4 13 15 13 11 9 7 10 12 11 10 7 9 6 -2 1 1 6 16 11 8 10
9 9 8 9 8 8 9 8 8 7 5 5 6 8 9 10 10 9 10 10 11 12 14 13 13 13 14 14 13 14 12 8 9 10 12 12 11 11 9 9 8 9 9 9 9 7 6 5 4 5 4 6 6 4 5 5 3 6 10 9 6 7 5 -0 4 10 7 10 16 14 10 11 14 11 9 10 10 9 8 8 8 6 -3 -0 18 22 15 13
9 10 9 10 9 9 9 8 8 6 6 7 7 9 9 9 9 8 8 8 9 11 12 13 13 12 12 13 13 13 13 11 9 9 10 11 10 10 10 10 9 10 10 11 11 8 6 5 5 6 6 6 5 4 5 6 4 6 9 9 7 5 7 5 4 5 6 11 12 11 11 12 12 8 10 9 11 15 12 12 11 10 9 3 1 6 15 14
9 10 10 10 10 10 9 8 7 7 7 7 8 9 8 8 7 6 5 5 7 7 9 12 11 12 12 12 13 12 13 12 10 11 11 11 11 11 11 11 11 10 10 10 10 9 7 7 6 5 7 7 6 8 9 10 8 9 10 8 7 6 8 10 8 6 7 8 7 10 10 7 9 10 11 7 6 9 11 11 5 10 14 9 6 -0 7 6
10 10 11 10 10 10 9 8 7 7 8 7 8 8 7 8 6 5 5 5 5 5 7 9 10 11 11 12 12 12 13 12 11 12 11 12 11 12 13 12 12 11 11 11 9 9 7 6 7 7 9 9 8 9 9 12 10 7 10 13 11 5 6 8 8 6 4 4 5 8 6 5 12 13 9 9 11 8 8 8 7 14 10 9 16 6 9 11
10 10 11 10 10 9 8 8 8 8 7 7 7 7 7 7 6 6 6 6 6 6 6 6 8 9 11 12 11 12 13 12 11 12 12 13 12 12 12 12 13 12 11 12 10 9 8 7 9 9 7 7 11 14 11 9 7 5 8 12 12 8 7 7 7 6 4 4 5 6 5 6 6 5 6 6 8 9 10 10 10 13 12 14 10 9 20 13
10 10 10 10 9 8 8 8 8 8 6 6 6 7 7 6 7 6 6 7 7 7 6 5 6 6 9 10 11 12 12 11 11 11 11 12 12 12 11 11 11 12 12 11 11 10 10 10 10 10 8 9 14 14 13 13 11 9 9 8 9 10 7 6 8 8 5 4 7 5 2 6 3 -1 5 6 4 4 5 4 6 11 16 22 15 13 10 -1
10 10 10 9 9 7 7 9 8 7 5 5 6 6 7 7 7 7 8 8 7 7 6 6 6 5 6 8 10 11 10 11 9 9 10 10 11 11 11 11 10 11 11 10 11 11 11 12 12 12 11 12 11 7 10 18 15 11 13 12 11 9 12 15 9 5 11 10 8 5 7 14 11 6 6 6 6 4 6 9 10 16 16 16 18 15 7 23
10 10 9 8 8 7 8 9 8 7 5 5 5 6 7 7 7 8 8 7 7 7 6 6 6 6 6 6 7 8 9 11 9 9 8 8 10 9 10 10 10 10 10 10 10 10 10 10 10 10 11 11 8 5 10 14 11 10 13 13 15 21 25 23 13 10 19 17 8 5 12 16 16 33 36 20 17 13 12 16 10 13 15 9 16 23 17 31
10 9 8 8 8 7 8 9 9 6 4 4 5 6 6 7 7 7 7 7 7 6 6 6 6 6 5 6 7 6 7 9 11 11 9 9 8 9 10 9 10 9 9 10 10 10 10 9 9 9 10 11 10 10 10 12 13 13 13 14 23 33 25 9 4 13 20 18 16 15 18 19 10 12 12 1 8 13 11 14 9 6 10 6 8 19 17 26
10 9 8 8 8 8 8 9 9 7 4 3 4 5 5 5 6 6 7 7 7 7 6 6 6 6 5 6 7 6 7 7 9 10 11 11 8 8 9 8 10 8 9 10 9 10 9 8 8 7 9 9 11 11 9 13 15 13 18 22 13 6 7 4 5 20 32 22 16 27 23 15 13 1 -0 10 10 8 7 7 6 4 7 9 6 10 16 30
9 9 8 9 8 8 8 9 9 7 5 3 3 3 3 4 5 6 7 6 7 6 6 6 6 6 6 7 7 7 7 7 7 8 9 10 10 11 9 8 9 8 10 9 9 10 9 10 8 9 11 9 11 14 19 21 15 9 10 16 10 -2 1 10 11 16 29 17 3 28 25 -2 7 -2 -15 4 2 -4 4 3 4 8 8 6 4 7 10 12
9 9 9 9 8 8 8 9 9 8 6 5 3 3 3 4 4 5 6 7 7 6 6 7 6 6 7 8 9 9 9 8 8 8 8 9 10 11 10 10 8 8 9 7 9 10 8 9 7 9 9 12 18 16 12 4 5 14 1 0 12 8 2 6 12 8 11 22 13 17 18 2 6 -0 -7 13 11 2 9 9 10 10 8 5 4 12 8 3
9 9 8 9 9 9 9 9 9 9 8 6 4 4 3 3 4 4 6 6 6 7 6 6 6 6 5 6 8 9 8 7 8 7 7 7 7 9 10 10 9 8 8 7 9 7 7 8 6 10 9 10 10 -2 -6 -9 7 24 0 -4 10 7 7 1 7 5 -8 19 35 17 11 6 -1 7 26 30 12 8 12 10 10 5 3 5 4 8 6 7
9 8 8 9 9 9 10 10 10 9 9 8 6 5 4 4 4 5 6 6 7 7 7 5 5 5 5 7 7 7 8 8 9 8 9 9 8 9 8 9 10 10 9 8 8 6 8 8 7 8 4 6 6 -3 3 10 24 21 -13 -7 15 16 18 2 -1 11 -3 -7 0 -0 5 6 -1 2 8 5 9 27 23 9 9 7 3 4 2 3 7 10
8 9 10 10 9 9 9 10 11 11 9 8 7 6 6 5 4 5 6 6 7 7 7 6 6 6 5 5 6 7 8 7 7 7 8 9 8 9 8 9 9 9 11 9 9 10 8 8 12 11 3 3 11 9 6 9 18 9 -14 -8 7 12 15 6 -1 3 11 12 4 10 15 9 13 10 -5 -2 20 25 10 2 5 10 13 11 8 7 6 4
7 7 9 10 11 10 9 9 9 10 10 9 8 7 7 6 5 6 5 6 7 6 6 6 6 6 6 6 7 7 6 6 7 7 7 7 7 8 8 8 8 8 8 8 9 11 11 12 9 7 7 2 2 5 5 8 10 2 -2 3 5 7 7 7 5 -11 -8 11 17 22 13 1 11 20 6 -11 -14 -14 -10 3 3 5 13 11 9 7 4 3
10 8 7 8 9 10 10 10 9 8 8 8 9 9 8 8 7 6 6 6 7 7 7 7 6 6 6 7 7 7 7 6 5 6 7 6 6 7 8 9 9 8 8 11 12 8 9 13 5 4 17 19 8 5 7 9 10 4 4 10 8 3 1 3 10 6 -6 -11 -4 1 -1 1 3 14 24 4 -14 -8 -0 7 8 8 11 10 12 9 3 4
13 12 11 10 9 9 10 11 11 10 9 8 8 8 8 8 7 6 7 7 6 7 8 7 7 7 6 7 9 11 9 6 8 11 10 9 9 9 8 8 6 7 11 14 12 8 8 5 1 5 10 14 16 13 12 8 7 6 3 9 4 -12 -3 10 11 19 15 3 12 12 6 13 -1 -9 13 16 7 8 4 5 7 7 10 11 12 15 13 9
11 12 12 12 11 11 10 9 10 10 10 10 8 8 7 6 7 7 6 6 7 10 12 11 10 9 8 11 12 10 7 9 14 14 10 9 11 10 6 7 10 13 16 18 17 16 14 2 -1 8 2 0 10 11 12 11 8 8 4 10 10 -10 -11 -0 3 15 13 1 9 10 3 11 11 4 11 18 17 16 14 16 14 10 10 9 8 11 14 9
10 10 9 10 10 9 9 8 8 7 7 9 9 8 7 6 7 8 8 7 7 10 14 14 15 18 19 17 14 12 12 13 10 5 6 10 11 9 7 10 14 10 -1 0 10 9 6 2 2 10 10 7 11 10 9 10 10 11 6 5 10 7 -1 -9 -6 5 3 -4 -0 6 4 1 6 11 9 13 19 16 10 9 13 14 9 7 6 5 9 12
10 10 9 9 9 8 9 7 7 7 6 6 7 9 9 8 8 8 8 6 6 12 13 10 11 13 13 10 11 15 10 8 8 2 4 11 9 11 16 14 14 14 4 -2 2 2 -0 4 6 8 11 9 8 11 11 10 9 9 9 8 6 11 12 4 3 5 2 0 -2 -1 2 -4 -3 3 3 7 10 4 -3 0 11 17 14 10 8 5 5 6
10 10 8 8 7 7 8 7 7 8 7 6 4 5 6 7 8 8 11 10 11 14 5 1 5 2 1 3 6 11 3 2 12 7 4 10 8 12 18 10 8 11 11 14 13 8 5 2 5 11 14 12 10 10 12 11 14 12 6 9 11 12 14 11 10 13 12 10 8 6 9 8 7 7 6 8 8 -1 -5 7 12 9 12 13 14 15 10 8
10 10 10 9 6 5 4 6 8 9 11 11 9 8 7 6 6 7 9 9 12 15 7 7 13 7 7 11 10 12 7 6 11 3 1 7 5 11 10 3 12 6 -7 10 18 10 11 5 1 9 10 11 12 10 11 9 10 11 6 9 15 13 13 12 9 11 11 8 9 10 10 11 12 14 12 8 10 8 6 15 11 0 6 6 4 7 2 4
9 10 11 12 10 8 5 4 4 6 8 10 12 13 12 11 11 10 10 7 8 11 8 9 10 6 7 13 15 13 9 10 13 7 8 12 7 8 7 2 15 14 -4 3 8 2 11 13 11 14 8 7 6 -1 5 12 11 11 7 9 14 9 4 6 7 9 8 6 10 13 14 13 10 15 17 12 11 8 7 14 8 1 8 4 1 8 9 7
8 8 9 11 12 13 10 7 5 4 5 6 8 9 10 11 11 12 15 16 15 10 8 8 3 3 5 7 13 13 12 14 8 3 8 15 13 9 13 11 10 15 9 5 9 7 9 12 18 23 11 4 4 -5 -3 8 11 12 11 9 9 7 5 7 8 9 8 7 9 13 15 15 12 11 11 10 6 2 6 13 9 8 12 7 5 12 12 8
8 8 9 9 10 11 11 10 9 8 8 7 7 7 9 9 8 12 13 12 14 12 15 16 9 13 15 10 14 12 11 14 3 -0 7 12 17 13 15 16 11 16 16 10 16 17 10 4 11 24 20 12 12 10 11 18 13 7 9 12 9 5 7 10 10 12 15 14 11 14 17 15 12 10 11 13 6 -0 4 7 5 8 8 4 5 7 5 6
9 8 8 8 8 9 8 8 8 8 8 6 7 7 7 7 8 12 11 5 8 9 15 22 16 15 14 13 19 11 7 16 11 10 15 12 13 13 15 16 12 15 13 8 11 12 15 14 8 14 16 17 23 16 11 20 24 20 14 12 13 10 7 10 15 17 17 17 15 15 15 10 5 7 13 17 12 5 5 6 8 8 3 2 6 4 3 6
9 8 8 7 7 8 7 7 6 5 5 5 7 7 6 8 8 10 10 5 5 1 -1 9 9 2 5 13 11 -0 4 16 10 5 7 8 7 7 10 11 9 11 5 2 5 3 6 8 11 19 15 19 33 19 -1 -4 4 22 25 13 14 19 13 8 12 11 5 10 14 10 12 17 17 14 3 -3 2 7 8 11 13 11 10 13 11 6 6 8
7 8 9 8 7 7 7 7 6 5 6 6 7 6 5 10 11 10 13 10 12 16 6 2 3 -2 5 17 9 1 10 11 5 7 7 8 9 5 5 4 4 9 6 5 11 12 7 -1 10 22 4 -1 12 8 10 9 -3 6 17 10 11 19 16 7 7 7 -0 -1 1 -3 1 6 8 13 9 -0 4 8 4 3 3 3 5 6 4 3 6 9
8 7 8 9 8 8 7 6 6 5 6 6 5 6 6 11 11 6 11 13 8 15 17 9 11 11 8 12 9 9 16 9 2 4 1 2 6 6 15 17 11 14 13 7 3 9 15 11 11 9 -7 -1 7 -5 3 14 2 -1 7 11 9 8 9 5 5 11 8 5 5 0 -1 -0 0 7 8 3 3 5 5 4 3 5 6 6 6 7 9 11
12 10 9 9 8 9 8 7 8 6 7 7 6 9 8 12 12 -2 1 15 6 -1 9 9 10 14 10 13 12 4 6 8 6 5 2 8 9 2 8 15 12 14 11 0 -3 0 4 1 -1 -2 -3 15 24 8 2 9 8 6 8 11 15 15 15 9 4 8 11 12 13 9 7 9 11 8 4 5 9 14 20 19 16 16 15 15 15 14 14 14
12 12 12 11 8 9 10 9 9 8 8 7 6 10 10 9 13 -2 -12 7 10 1 8 11 9 8 1 2 10 11 10 8 9 13 9 9 11 2 0 4 4 6 1 -0 8 10 4 -4 -10 -11 -6 8 20 16 11 11 9 8 -0 -8 -1 11 14 10 7 9 11 10 8 8 10 11 13 13 11 10 9 10 15 13 10 11 10 15 21 17 13 12
14 13 13 13 11 11 10 8 9 8 6 7 7 10 10 9 14 10 2 4 2 -2 0 1 5 12 8 1 1 8 14 9 8 15 14 11 10 3 1 5 4 3 6 10 12 6 4 3 -2 -2 -1 0 4 5 6 9 12 18 16 5 -0 1 0 1 4 6 8 9 7 8 9 8 12 13 10 7 6 10 17 9 2 7 13 16 15 9 7 9
18 15 13 14 16 15 11 8 9 8 5 7 10 9 9 11 7 6 14 18 10 4 4 -1 -3 4 11 13 8 -0 2 6 6 5 8 16 18 10 6 6 4 6 12 18 16 7 5 3 -0 5 3 -8 -11 -8 -2 7 11 10 9 11 13 11 12 13 10 5 5 5 8 8 5 6 7 4 5 13 13 11 15 11 2 4 10 8 6 4 6 9
21 18 13 13 16 15 13 11 9 10 9 7 10 10 8 10 4 -6 -1 13 19 15 9 4 1 -2 -7 -3 9 11 5 8 12 4 -5 -1 11 21 21 12 5 4 4 10 14 9 8 9 6 8 8 2 -2 -2 3 16 20 6 -4 5 13 9 11 17 12 10 10 8 10 11 8 8 6 3 4 6 3 -1 6 12 2 -7 -8 -5 3 7 6 9
16 18 16 15 16 14 15 16 11 9 11 9 9 11 8 6 8 3 -6 -2 12 18 14 10 9 8 0 -9 -4 1 -3 1 12 15 9 2 3 9 10 6 6 4 2 6 8 1 3 10 11 10 10 7 5 5 4 5 6 2 -2 6 10 -3 -8 -2 3 7 8 2 -1 1 3 5 3 4 5 3 2 3 8 13 5 -7 -9 -2 6 7 4 7
7 9 16 22 21 15 13 16 15 12 12 12 10 9 8 6 7 9 5 -0 3 9 14 14 9 8 10 6 -0 -7 -11 -7 -4 -6 -2 4 7 6 0 -1 3 5 7 8 5 3 6 8 6 6 7 5 4 5 -1 -9 -6 1 -2 -4 -3 -6 -7 -4 -0 4 3 -3 -6 -4 -0 3 2 2 3 5 8 5 3 7 2 -4 -3 0 5 10 10 9
7 5 8 13 16 14 12 13 16 17 14 11 11 10 9 8 7 8 9 6 6 8 10 10 9 8 7 7 9 4 -1 -0 -3 -7 -8 -10 -6 -1 -0 3 5 5 8 6 0 2 6 6 4 2 3 5 5 5 10 18 25 24 18 12 7 5 5 5 2 1 1 1 3 4 2 5 8 6 4 4 5 4 4 5 4 7 11 9 7 9 7 3
11 9 6 5 9 13 15 15 13 14 15 13 11 13 13 9 6 7 6 0 -1 3 5 4 6 8 7 6 9 8 6 6 5 8 7 -3 -6 -2 -1 1 2 -0 1 3 4 6 6 7 8 5 4 5 4 2 5 9 5 -1 6 16 18 17 15 13 9 4 3 4 4 5 6 8 10 10 11 8 3 3 7 7 6 10 14 12 10 7 3 1
10 10 9 9 11 11 12 15 14 13 15 14 10 9 15 14 7 9 17 16 10 5 2 3 5 6 5 5 6 6 7 8 5 5 5 1 4 12 10 4 2 -0 -1 1 5 5 3 2 3 4 6 5 3 2 -1 -5 -10 -11 -5 -2 1 6 6 6 10 12 14 15 12 10 9 6 4 4 7 9 7 5 7 10 14 15 9 3 2 6 12 16
7 8 9 9 9 9 6 7 12 15 15 16 14 8 9 13 9 7 13 16 15 11 5 6 9 10 8 5 4 4 2 3 3 3 4 1 -1 6 8 3 1 1 -3 -3 3 4 3 5 4 5 7 5 4 5 3 2 -0 -2 -0 -3 -4 -1 -4 -7 -2 1 3 8 10 11 8 4 2 -1 -3 -1 0 -2 -2 6 18 21 14 9 10 16 18 15
10 8 8 9 9 9 7 2 3 11 12 14 19 15 9 9 5 1 1 2 8 14 15 15 12 9 12 12 10 10 6 4 2 -1 1 2 -2 0 6 6 7 8 0 -3 4 5 2 5 6 4 5 3 3 4 2 4 4 2 4 4 1 2 0 -3 -0 -1 -3 -2 -3 -5 -4 0 2 0 -1 0 1 1 3 6 7 2 -0 5 12 15 14 10
15 11 8 9 8 5 8 9 5 6 7 6 10 13 15 18 14 9 5 5 8 10 11 17 18 13 12 11 9 10 10 10 9 4 3 5 2 1 5 7 11 15 11 7 13 14 11 12 12 8 7 5 4 4 2 2 4 3 4 5 4 5 5 5 9 9 8 6 0 -5 -4 -2 -3 -5 -2 4 9 9 4 -1 -5 -8 -7 -2 0 3 7 9
16 17 14 13 11 6 7 10 9 9 9 7 6 5 5 10 14 14 10 7 9 9 5 8 14 16 14 10 9 11 11 10 14 13 10 11 11 8 6 4 4 9 12 12 13 16 17 21 20 17 17 19 19 19 16 14 12 9 7 7 6 6 6 6 6 7 11 13 11 9 9 5 2 4 5 9 16 18 12 6 3 2 1 0 2 7 5 -1
11 13 15 15 15 14 12 11 11 11 11 8 8 7 5 6 9 11 9 7 8 11 10 6 3 6 9 9 10 13 14 13 14 15 12 9 11 12 11 10 9 10 12 12 12 15 17 16 16 17 18 19 20 21 20 20 19 16 15 15 13 11 11 10 6 3 7 13 12 9 9 8 12 18 15 12 14 15 12 10 7 9 12 10 10 16 14 7
11 10 11 13 14 15 15 15 12 11 11 11 11 9 6 6 6 5 6 7 6 5 8 10 8 7 7 7 5 6 10 12 11 13 16 15 14 15 14 12 12 10 9 7 6 7 7 3 2 7 10 10 13 16 16 16 17 15 16 20 19 16 16 17 15 10 5 9 14 15 14 11 10 12 13 13 14 12 10 8 4 4 9 7 2 1 2 5
Height
5758 5758 5759 5759 5760 5760 5761 5761 5762 5762 5762 5763 5763 5763 5764 5764 5764 5764 5764 5764 5763 5763 5763 5763 5763 5763 5763 5763 5764 5764 5765 5766 5766 5767 5768 5768 5769 5770 5771 5772 5773 5774 5775 5775 5776 5776 5777 5778 5778 5779 5779 5780 5781 5781 5781 5782 5783 5783 5784 5784 5785 5787 5789 5791 5793 5798 5798 5797 5796 5790 5786 5785 5786 5790 5792 5791 5795 5797 5797 5795 5790 5791 5794 5794 5797 5797 5797 5799
5756 5756 5757 5757 5758 5758 5759 5759 5759 5760 5760 5761 5761 5761 5762 5762 5762 5762 5761 5761 5761 5760 5760 5760 5760 5760 5760 5761 5761 5762 5762 5763 5764 5765 5765 5766 5767 5768 5769 5770 5770 5771 5772 5773 5774 5774 5775 5776 5776 5777 5778 5778 5779 5779 5779 5780 5781 5781 5782 5782 5783 5785 5787 5789 5793 5797 5792 5789 5788 5784 5782 5782 5786 5791 5789 5788 5793 5794 5794 5793 5787 5788 5792 5792 5795 5795 5794 5795
5754 5754 5755 5755 5756 5756 5757 5757 5757 5758 5758 5759 5759 5759 5760 5760 5760 5759 5759 5759 5758 5758 5758 5758 5758 5758 5758 5758 5758 5759 5760 5760 5761 5762 5763 5764 5764 5765 5766 5767 5768 5769 5770 5771 5772 5772 5773 5774 5775 5775 5776 5776 5777 5778 5777 5778 5779 5780 5780 5780 5782 5784 5786 5788 5791 5789 5783 5782 5783 5783 5782 5782 5786 5787 5785 5787 5790 5791 5792 5792 5786 5784 5790 5792 5792 5792 5792 5793
5752 5752 5753 5753 5754 5754 5755 5755 5755 5756 5756 5757 5757 5757 5757 5757 5757 5757 5756 5756 5756 5755 5755 5755 5755 5755 5755 5755 5756 5756 5757 5758 5759 5760 5760 5761 5762 5763 5764 5765 5766 5767 5767 5769 5769 5770 5771 5772 5773 5774 5774 5774 5775 5775 5775 5776 5777 5778 5778 5779 5781 5782 5783 5785 5783 5778 5777 5780 5781 5783 5782 5783 5786 5782 5783 5787 5787 5789 5790 5791 5786 5781 5787 5790 5787 5788 5790 5790
5749 5750 5750 5751 5751 5752 5752 5753 5753 5754 5754 5754 5755 5755 5755 5755 5755 5754 5754 5754 5753 5753 5753 5753 5753 5752 5753 5753 5753 5754 5755 5756 5756 5757 5758 5759 5759 5760 5761 5762 5763 5764 5765 5766 5767 5768 5769 5770 5771 5771 5772 5772 5773 5773 5773 5774 5774 5775 5776 5777 5779 5778 5778 5779 5777 5773 5775 5779 5780 5782 5782 5783 5783 5780 5784 5785 5784 5787 5786 5786 5784 5779 5784 5786 5784 5785 5787 5788
5747 5748 5748 5749 5749 5750 5750 5751 5751 5751 5752 5752 5753 5753 5753 5753 5753 5752 5752 5752 5751 5751 5751 5750 5750 5750 5750 5750 5751 5751 5752 5753 5754 5754 5755 5756 5757 5758 5759 5760 5761 5762 5763 5763 5765 5766 5767 5768 5768 5769 5769 5770 5770 5770 5771 5772 5772 5772 5773 5774 5776 5776 5775 5775 5775 5773 5774 5776 5779 5780 5780 5780 5780 5781 5783 5781 5783 5784 5780 5781 5782 5778 5780 5784 5784 5784 5785 5785
5745 5745 5746 5746 5747 5747 5748 5748 5749 5749 5750 5750 5750 5751 5751 5751 5750 5750 5750 5750 5749 5749 5749 5748 5748 5748 5748 5748 5748 5749 5750 5751 5751 5752 5753 5753 5754 5755 5756 5757 5758 5759 5760 5761 5762 5763 5764 5765 5766 5766 5767 5767 5768 5767 5768 5769 5769 5770 5771 5772 5773 5773 5773 5773 5772 5772 5773 5775 5777 5778 5778 5778 5779 5781 5779 5779 5782 5779 5775 5779 5780 5776 5779 5784 5784 5783 5784 5784
5742 5743 5744 5744 5745 5745 5746 5746 5747 5747 5748 5748 5748 5748 5748 5749 5748 5748 5748 5748 5748 5747 5747 5747 5746 5746 5746 5746 5746 5747 5748 5748 5749 5750 5750 5751 5752 5752 5753 5754 5755 5756 5757 5758 5759 5760 5761 5762 5763 5764 5764 5765 5764 5765 5766 5766 5767 5768 5769 5769 5770 5770 5771 5771 5770 5771 5772 5772 5774 5775 5776 5777 5778 5778 5778 5779 5779 5774 5771 5775 5777 5777 5778 5782 5783 5782 5783 5783
5740 5741 5741 5742 5742 5743 5743 5744 5744 5745 5746 5746 5746 5746 5746 5747 5747 5747 5747 5746 5746 5746 5745 5745 5745 5744 5744 5744 5745 5745 5746 5746 5747 5747 5748 5748 5749 5750 5751 5751 5752 5753 5754 5755 5756 5757 5758 5759 5760 5761 5761 5762 5762 5763 5763 5764 5765 5765 5766 5767 5767 5768 5768 5769 5769 5770 5770 5771 5773 5774 5775 5775 5776 5776 5777 5777 5775 5770 5767 5770 5775 5777 5778 5779 5781 5781 5781 5782
5738 5739 5739 5740 5740 5741 5741 5742 5742 5743 5744 5744 5744 5744 5745 5745 5745 5745 5745 5745 5744 5744 5744 5743 5743 5743 5743 5743 5743 5743 5744 5744 5745 5745 5746 5746 5747 5747 5748 5749 5750 5751 5751 5752 5754 5754 5756 5756 5758 5758 5759 5759 5759 5760 5761 5762 5762 5762 5763 5765 5766 5766 5767 5767 5768 5769 5768 5770 5771 5772 5773 5773 5773 5774 5776 5773 5770 5768 5765 5769 5773 5774 5775 5775 5778 5778 5778 5780
5736 5737 5737 5738 5738 5739 5739 5740 5741 5741 5742 5742 5742 5743 5743 5743 5743 5743 5743 5743 5743 5743 5742 5742 5742 5742 5742 5741 5741 5742 5742 5743 5743 5743 5744 5744 5745 5745 5746 5747 5747 5748 5749 5750 5751 5752 5753 5754 5755 5756 5756 5756 5757 5758 5759 5760 5760 5760 5762 5764 5764 5764 5765 5765 5766 5767 5767 5768 5769 5770 5771 5771 5771 5773 5773 5769 5767 5767 5766 5768 5771 5770 5771 5771 5773 5774 5775 5777
5734 5734 5735 5735 5736 5737 5737 5738 5739 5739 5740 5740 5740 5741 5741 5741 5741 5742 5742 5742 5741 5741 5741 5741 5741 5740 5740 5740 5740 5740 5741 5741 5741 5741 5742 5742 5743 5743 5744 5745 5746 5746 5747 5748 5749 5750 5751 5752 5753 5753 5753 5755 5756 5756 5756 5757 5758 5758 5760 5761 5762 5762 5763 5764 5764 5765 5766 5766 5766 5768 5769 5768 5770 5771 5770 5766 5765 5766 5766 5766 5767 5768 5769 5769 5770 5770 5771 5773
5732 5732 5733 5733 5734 5735 5735 5736 5737 5737 5738 5738 5739 5739 5739 5739 5740 5740 5740 5740 5740 5740 5739 5739 5739 5739 5739 5739 5739 5739 5739 5739 5740 5740 5740 5741 5741 5742 5743 5743 5744 5745 5746 5746 5747 5748 5749 5750 5751 5751 5752 5753 5754 5754 5755 5756 5757 5757 5758 5759 5760 5760 5761 5761 5761 5762 5764 5764 5762 5765 5768 5767 5769 5768 5766 5765 5764 5764 5765 5766 5766 5768 5769 5768 5769 5768 5769 5769
5730 5730 5731 5731 5732 5733 5733 5734 5735 5735 5736 5736 5737 5737 5737 5738 5738 5738 5738 5738 5738 5738 5738 5738 5738 5738 5738 5738 5738 5738 5738 5738 5738 5739 5739 5740 5740 5740 5741 5742 5743 5743 5744 5745 5746 5747 5748 5749 5749 5750 5751 5751 5751 5752 5754 5754 5755 5756 5756 5758 5758 5759 5760 5757 5757 5760 5763 5761 5758 5763 5766 5767 5768 5767 5764 5762 5763 5762 5762 5764 5766 5767 5767 5768 5768 5767 5768 5767
5728 5728 5729 5729 5730 5731 5731 5732 5733 5733 5734 5734 5735 5735 5736 5736 5736 5736 5736 5736 5736 5736 5736 5736 5736 5736 5736 5736 5737 5736 5736 5737 5737 5737 5738 5738 5739 5739 5740 5740 5741 5742 5743 5744 5744 5745 5746 5747 5747 5748 5748 5749 5750 5751 5752 5752 5753 5754 5755 5756 5757 5759 5760 5756 5754 5759 5762 5758 5756 5761 5765 5766 5768 5767 5763 5760 5762 5762 5758 5759 5763 5765 5765 5766 5766 5766 5768 5767
5726 5726 5727 5727 5728 5729 5730 5730 5731 5731 5732 5733 5733 5734 5734 5734 5734 5734 5734 5734 5734 5734 5734 5734 5734 5735 5735 5735 5735 5735 5735 5735 5736 5736 5737 5737 5737 5738 5738 5739 5740 5741 5741 5742 5743 5743 5744 5745 5746 5746 5747 5748 5748 5749 5750 5750 5751 5753 5753 5755 5757 5760 5761 5758 5754 5756 5759 5757 5755 5759 5763 5765 5767 5765 5761 5757 5759 5762 5757 5756 5759 5761 5763 5763 5764 5766 5767 5767
5724 5724 5725 5725 5726 5727 5728 5728 5729 5729 5730 5731 5731 5732 5732 5732 5732 5732 5733 5733 5733 5733 5733 5733 5733 5733 5733 5733 5734 5734 5734 5734 5734 5735 5735 5736 5736 5737 5737 5738 5738 5739 5740 5740 5741 5742 5743 5743 5744 5745 5745 5746 5747 5748 5749 5750 5752 5753 5754 5754 5756 5760 5762 5760 5757 5754 5756 5757 5755 5757 5761 5763 5764 5762 5759 5757 5758 5760 5758 5756 5756 5759 5761 5761 5763 5765 5767 5767
5722 5722 5723 5723 5724 5725 5725 5726 5727 5727 5728 5729 5729 5729 5730 5730 5730 5730 5731 5731 5731 5731 5731 5731 5731 5731 5731 5732 5732 5732 5732 5733 5733 5733 5734 5734 5735 5735 5736 5737 5737 5738 5738 5739 5740 5741 5741 5742 5743 5743 5744 5745 5746 5747 5747 5749 5752 5753 5753 5755 5756 5758 5760 5761 5759 5755 5754 5755 5755 5757 5759 5760 5760 5759 5758 5756 5756 5758 5758 5756 5755 5756 5759 5760 5761 5763 5764 5765
5720 5720 5721 5721 5722 5722 5723 5724 5724 5725 5726 5726 5727 5727 5728 5728 5728 5728 5729 5729 5729 5729 5729 5729 5729 5729 5729 5730 5730 5731 5731 5731 5731 5732 5732 5733 5733 5734 5735 5735 5735 5736 5737 5738 5738 5739 5740 5741 5741 5742 5743 5743 5744 5744 5745 5746 5747 5749 5750 5753 5755 5756 5757 5759 5758 5754 5752 5754 5755 5756 5758 5760 5760 5758 5758 5755 5754 5756 5757 5756 5753 5753 5755 5758 5759 5759 5759 5760
5718 5718 5719 5719 5720 5720 5721 5722 5722 5723 5723 5724 5724 5725 5725 5726 5726 5726 5727 5727 5727 5727 5727 5727 5728 5727 5727 5728 5729 5729 5729 5730 5730 5730 5731 5731 5732 5732 5733 5733 5734 5734 5735 5736 5737 5738 5739 5739 5740 5740 5741 5742 5742 5743 5744 5745 5745 5747 5748 5750 5753 5754 5756 5756 5755 5752 5751 5753 5755 5755 5758 5760 5760 5760 5759 5755 5753 5754 5755 5756 5755 5752 5752 5754 5756 5757 5757 5757
5716 5716 5716 5717 5717 5718 5718 5719 5720 5720 5721 5722 5722 5722 5723 5723 5723 5724 5724 5725 5725 5725 5725 5726 5726 5725 5725 5726 5727 5727 5728 5728 5728 5729 5729 5730 5730 5731 5731 5732 5732 5733 5733 5734 5735 5736 5737 5738 5738 5738 5739 5741 5741 5741 5743 5744 5744 5745 5746 5747 5749 5751 5755 5754 5751 5750 5748 5749 5752 5752 5755 5758 5758 5759 5758 5755 5754 5752 5752 5754 5755 5753 5752 5752 5753 5755 5756 5757
5714 5714 5714 5715 5715 5716 5716 5717 5717 5718 5719 5719 5720 5720 5721 5721 5721 5721 5722 5722 5723 5723 5723 5724 5724 5724 5724 5724 5725 5725 5726 5726 5726 5727 5728 5728 5728 5729 5730 5730 5731 5731 5732 5732 5733 5734 5735 5736 5736 5736 5737 5739 5739 5740 5741 5742 5742 5743 5744 5745 5746 5748 5753 5751 5748 5748 5747 5747 5749 5749 5751 5755 5756 5755 5753 5752 5752 5751 5751 5752 5753 5753 5753 5752 5750 5750 5751 5754
5711 5712 5712 5712 5713 5713 5714 5714 5715 5716 5716 5717 5717 5718 5718 5719 5719 5719 5719 5720 5720 5721 5721 5721 5722 5722 5722 5722 5723 5724 5723 5723 5724 5725 5726 5726 5726 5727 5728 5729 5729 5729 5730 5730 5731 5732 5733 5734 5733 5733 5735 5736 5737 5738 5739 5740 5741 5742 5742 5743 5745 5746 5750 5750 5746 5746 5746 5745 5747 5747 5748 5750 5751 5750 5749 5749 5749 5749 5750 5750 5751 5751 5752 5752 5750 5748 5747 5749
5709 5709 5710 5710 5711 5711 5712 5712 5713 5713 5714 5714 5715 5716 5716 5717 5717 5717 5717 5717 5718 5718 5719 5719 5720 5720 5720 5721 5721 5721 5721 5721 5722 5722 5724 5724 5724 5726 5726 5726 5728 5728 5728 5729 5729 5731 5731 5731 5730 5732 5733 5734 5735 5736 5737 5738 5739 5740 5740 5741 5743 5743 5746 5748 5743 5741 5743 5743 5745 5746 5746 5746 5747 5746 5748 5749 5747 5747 5748 5748 5749 5750 5750 5751 5749 5746 5746 5746
5707 5707 5708 5708 5708 5709 5709 5710 5710 5711 5711 5712 5712 5713 5714 5714 5715 5715 5715 5715 5715 5716 5716 5716 5717 5717 5718 5719 5719 5719 5719 5720 5719 5719 5721 5722 5723 5723 5723 5725 5726 5726 5727 5728 5728 5730 5729 5727 5728 5730 5732 5732 5733 5734 5735 5736 5736 5737 5738 5739 5740 5740 5741 5742 5740 5739 5741 5743 5743 5743 5743 5744 5744 5745 5746 5747 5745 5744 5745 5745 5747 5747 5748 5749 5748 5745 5743 5743
5705 5705 5705 5706 5706 5707 5707 5708 5708 5708 5709 5709 5710 5711 5711 5712 5713 5713 5712 5712 5712 5713 5713 5714 5715 5715 5715 5716 5717 5717 5717 5718 5717 5717 5718 5720 5720 5720 5721 5722 5724 5724 5726 5727 5728 5729 5726 5724 5726 5728 5729 5730 5730 5731 5732 5733 5734 5735 5735 5736 5736 5737 5737 5737 5738 5738 5739 5741 5741 5739 5740 5742 5742 5743 5744 5744 5744 5742 5742 5743 5744 5745 5746 5747 5747 5744 5741 5740
5702 5703 5703 5704 5704 5704 5705 5705 5706 5706 5706 5707 5708 5708 5709 5709 5710 5710 5710 5710 5709 5710 5711 5712 5713 5713 5713 5713 5715 5715 5715 5716 5715 5715 5716 5718 5718 5718 5719 5720 5722 5723 5723 5724 5725 5726 5724 5723 5725 5726 5727 5728 5728 5729 5730 5730 5731 5732 5732 5733 5733 5734 5735 5735 5736 5736 5737 5738 5738 5737 5738 5739 5739 5741 5742 5742 5742 5741 5739 5741 5742 5743 5743 5744 5745 5744 5742 5740
5700 5700 5701 5701 5702 5702 5702 5703 5703 5704 5704 5705 5705 5706 5706 5707 5708 5708 5707 5707 5707 5708 5709 5710 5711 5711 5710 5711 5713 5713 5713 5714 5714 5713 5714 5716 5716 5717 5718 5718 5720 5721 5721 5722 5722 5722 5722 5721 5722 5723 5725 5725 5726 5727 5728 5728 5729 5729 5729 5730 5730 5731 5732 5733 5733 5734 5735 5735 5734 5735 5736 5736 5736 5739 5740 5738 5739 5738 5737 5738 5739 5741 5741 5740 5741 5742 5741 5740
5698 5698 5698 5699 5699 5700 5700 5701 5701 5701 5702 5702 5703 5703 5704 5705 5705 5706 5705 5705 5706 5706 5706 5707 5708 5708 5708 5709 5711 5711 5711 5712 5713 5712 5712 5714 5714 5715 5716 5716 5717 5718 5718 5719 5719 5719 5719 5719 5719 5721 5722 5723 5724 5726 5726 5725 5726 5726 5726 5727 5728 5729 5730 5730 5731 5732 5732 5731 5731 5733 5734 5734 5734 5735 5737 5735 5735 5735 5736 5736 5736 5737 5738 5738 5738 5738 5738 5738
5695 5695 5696 5696 5697 5697 5698 5698 5699 5699 5700 5700 5700 5701 5701 5702 5703 5703 5703 5703 5705 5705 5704 5705 5706 5706 5706 5707 5708 5709 5710 5710 5710 5710 5710 5711 5712 5713 5713 5713 5714 5715 5715 5716 5717 5717 5717 5716 5717 5719 5720 5720 5721 5723 5723 5723 5724 5724 5725 5726 5726 5727 5728 5728 5728 5729 5729 5728 5729 5731 5732 5732 5731 5732 5733 5732 5731 5732 5734 5735 5733 5733 5736 5736 5735 5735 5736 5736
5692 5692 5693 5693 5694 5694 5695 5696 5696 5697 5697 5698 5698 5698 5699 5699 5700 5701 5701 5702 5704 5703 5702 5704 5703 5703 5705 5706 5706 5707 5707 5708 5709 5708 5708 5709 5710 5711 5711 5711 5712 5713 5713 5714 5714 5715 5715 5715 5715 5716 5717 5717 5718 5720 5720 5720 5722 5722 5723 5723 5724 5725 5725 5725 5725 5726 5726 5726 5727 5729 5729 5728 5728 5729 5729 5729 5729 5729 5730 5731 5730 5731 5732 5731 5732 5734 5734 5734
5689 5690 5690 5690 5691 5692 5692 5693 5693 5694 5694 5695 5695 5696 5696 5697 5697 5699 5700 5700 5700 5700 5700 5702 5701 5701 5703 5703 5704 5705 5705 5706 5707 5706 5707 5707 5707 5708 5709 5710 5710 5710 5711 5712 5712 5713 5713 5713 5713 5714 5715 5715 5716 5717 5718 5719 5719 5720 5721 5721 5721 5722 5722 5721 5722 5723 5723 5724 5725 5725 5725 5725 5725 5726 5727 5726 5727 5727 5727 5728 5728 5729 5729 5729 5731 5732 5731 5731
5686 5687 5687 5687 5688 5689 5689 5690 5691 5691 5692 5692 5693 5693 5694 5694 5695 5697 5698 5698 5698 5698 5699 5700 5700 5700 5700 5701 5703 5703 5703 5704 5705 5705 5705 5705 5705 5706 5707 5708 5708 5709 5710 5710 5710 5711 5711 5712 5712 5713 5713 5712 5714 5715 5716 5718 5717 5717 5718 5718 5718 5719 5719 5719 5720 5721 5721 5721 5722 5721 5721 5723 5723 5724 5724 5723 5723 5724 5725 5725 5726 5725 5726 5727 5729 5728 5727 5727
5683 5683 5684 5685 5685 5686 5686 5687 5688 5688 5689 5689 5690 5691 5691 5692 5694 5695 5696 5696 5697 5697 5697 5698 5699 5699 5699 5701 5702 5701 5701 5702 5703 5703 5704 5704 5704 5704 5704 5706 5706 5708 5708 5708 5708 5709 5710 5710 5710 5711 5712 5711 5712 5713 5714 5716 5716 5716 5716 5716 5716 5716 5717 5717 5718 5718 5718 5718 5719 5719 5719 5721 5721 5721 5721 5719 5719 5722 5723 5722 5723 5723 5723 5725 5725 5724 5723 5724
5679 5680 5681 5681 5682 5682 5683 5684 5684 5685 5686 5686 5687 5688 5688 5690 5692 5693 5694 5695 5695 5695 5696 5697 5698 5698 5699 5700 5700 5699 5700 5701 5701 5702 5702 5702 5702 5703 5703 5703 5704 5705 5705 5706 5707 5707 5708 5709 5709 5710 5710 5710 5711 5712 5712 5713 5714 5714 5714 5714 5714 5714 5715 5715 5715 5716 5716 5716 5716 5717 5718 5718 5718 5718 5718 5718 5718 5719 5719 5719 5720 5720 5720 5721 5721 5721 5721 5722
5675 5676 5677 5678 5678 5679 5679 5680 5681 5682 5682 5683 5684 5684 5686 5688 5690 5691 5692 5693 5693 5693 5693 5694 5695 5696 5697 5697 5698 5698 5699 5699 5699 5700 5700 5700 5701 5702 5702 5701 5702 5703 5703 5704 5705 5705 5706 5708 5708 5708 5708 5708 5708 5709 5710 5710 5711 5711 5712 5713 5713 5712 5712 5713 5713 5713 5713 5714 5715 5715 5716 5716 5716 5716 5716 5716 5716 5716 5716 5716 5716 5716 5716 5717 5717 5718 5718 5719
5671 5672 5674 5674 5674 5675 5676 5677 5677 5678 5679 5679 5680 5681 5684 5686 5687 5689 5689 5689 5690 5690 5690 5692 5692 5693 5694 5695 5695 5696 5696 5696 5697 5697 5698 5698 5699 5700 5701 5699 5699 5700 5701 5701 5702 5703 5703 5705 5705 5705 5706 5706 5706 5706 5707 5708 5709 5710 5711 5711 5710 5709 5710 5710 5711 5711 5711 5712 5713 5714 5714 5714 5714 5714 5713 5713 5712 5712 5713 5712 5711 5712 5713 5713 5713 5714 5715 5715
5666 5668 5670 5670 5670 5671 5672 5672 5673 5675 5675 5675 5677 5679 5681 5683 5683 5685 5686 5686 5686 5687 5688 5689 5689 5690 5691 5692 5693 5693 5694 5694 5694 5695 5696 5696 5696 5697 5698 5697 5696 5697 5697 5698 5700 5700 5700 5702 5702 5702 5705 5706 5705 5704 5705 5706 5707 5708 5709 5708 5708 5708 5708 5709 5709 5709 5709 5710 5710 5711 5712 5712 5712 5712 5711 5710 5709 5710 5710 5709 5708 5708 5709 5710 5710 5711 5711 5712
5662 5664 5665 5665 5666 5668 5668 5668 5669 5670 5671 5672 5674 5676 5678 5680 5681 5682 5682 5682 5683 5684 5685 5686 5687 5688 5688 5689 5690 5691 5692 5692 5692 5693 5694 5694 5693 5693 5695 5694 5693 5694 5694 5696 5698 5698 5697 5698 5700 5701 5703 5705 5704 5702 5703 5704 5705 5706 5706 5706 5706 5706 5706 5707 5707 5707 5707 5708 5708 5708 5709 5710 5709 5708 5709 5707 5707 5708 5707 5706 5705 5705 5706 5707 5708 5707 5708 5709
5658 5659 5660 5661 5664 5665 5664 5664 5665 5666 5667 5669 5671 5673 5675 5676 5677 5679 5679 5678 5679 5681 5682 5682 5684 5685 5686 5686 5687 5687 5689 5690 5690 5691 5692 5692 5690 5689 5691 5691 5691 5691 5692 5693 5695 5695 5695 5695 5697 5699 5700 5701 5701 5700 5701 5702 5702 5703 5703 5703 5703 5703 5703 5704 5704 5705 5705 5705 5706 5706 5706 5707 5705 5704 5706 5705 5704 5705 5705 5704 5703 5702 5703 5705 5705 5705 5705 5705
5656 5655 5655 5657 5660 5660 5659 5659 5661 5662 5663 5665 5667 5669 5671 5672 5673 5675 5674 5674 5675 5677 5678 5679 5680 5681 5682 5682 5682 5684 5686 5686 5687 5687 5688 5688 5687 5686 5687 5688 5688 5688 5689 5690 5692 5691 5691 5692 5694 5696 5697 5697 5698 5698 5699 5698 5699 5700 5700 5700 5701 5700 5700 5700 5701 5702 5702 5702 5703 5703 5703 5703 5702 5702 5703 5702 5701 5701 5702 5702 5699 5699 5702 5703 5702 5702 5702 5702
5653 5651 5651 5654 5657 5656 5655 5655 5657 5658 5659 5661 5664 5666 5667 5667 5669 5670 5670 5671 5672 5673 5674 5675 5676 5677 5678 5679 5679 5680 5682 5682 5683 5684 5685 5686 5684 5683 5683 5683 5685 5685 5686 5687 5688 5687 5688 5689 5691 5693 5694 5694 5694 5696 5697 5695 5695 5697 5698 5698 5698 5698 5698 5698 5699 5699 5699 5700 5700 5700 5700 5699 5699 5700 5700 5699 5698 5698 5699 5699 5696 5696 5700 5700 5699 5699 5699 5699
5650 5648 5648 5651 5652 5651 5651 5652 5653 5655 5656 5658 5660 5661 5662 5664 5665 5666 5667 5668 5669 5670 5671 5671 5672 5673 5674 5675 5675 5677 5678 5678 5679 5680 5681 5682 5680 5679 5678 5678 5680 5682 5683 5684 5684 5684 5686 5688 5689 5690 5690 5691 5692 5693 5695 5693 5692 5693 5695 5695 5695 5695 5695 5696 5696 5696 5696 5697 5697 5697 5697 5696 5696 5697 5697 5696 5696 5695 5695 5695 5692 5693 5696 5696 5696 5696 5695 5695
5646 5646 5645 5647 5648 5647 5648 5649 5650 5651 5652 5654 5656 5657 5658 5660 5661 5662 5663 5664 5665 5665 5666 5666 5667 5669 5670 5670 5671 5673 5674 5674 5675 5675 5677 5677 5676 5675 5674 5675 5677 5678 5679 5680 5681 5682 5684 5684 5685 5686 5687 5688 5690 5691 5693 5692 5689 5688 5689 5690 5691 5691 5692 5692 5692 5692 5692 5693 5694 5694 5694 5693 5692 5693 5693 5693 5693 5692 5692 5691 5689 5689 5691 5691 5691 5691 5691 5691
5642 5642 5641 5643 5644 5645 5644 5645 5646 5647 5648 5650 5651 5652 5654 5655 5656 5657 5658 5659 5660 5660 5661 5661 5663 5665 5666 5666 5668 5668 5669 5671 5671 5672 5672 5673 5672 5671 5671 5672 5673 5673 5675 5676 5678 5680 5680 5679 5681 5682 5683 5684 5687 5688 5689 5688 5686 5684 5683 5685 5686 5687 5688 5687 5686 5688 5689 5689 5690 5690 5691 5690 5689 5689 5689 5688 5689 5689 5689 5688 5686 5685 5686 5686 5686 5686 5687 5687
5638 5638 5638 5638 5640 5641 5641 5642 5642 5643 5645 5646 5646 5648 5650 5651 5653 5652 5652 5654 5655 5655 5655 5657 5660 5661 5661 5662 5664 5664 5665 5667 5667 5668 5668 5669 5669 5667 5666 5667 5668 5669 5672 5673 5673 5675 5675 5675 5676 5678 5678 5680 5682 5683 5683 5682 5681 5681 5681 5681 5682 5683 5683 5682 5682 5684 5685 5685 5685 5687 5687 5687 5686 5686 5684 5683 5684 5684 5684 5684 5683 5681 5680 5681 5681 5681 5682 5682
5633 5633 5634 5635 5636 5637 5638 5638 5638 5640 5641 5641 5641 5644 5646 5647 5649 5648 5648 5650 5650 5648 5649 5653 5655 5655 5656 5658 5659 5659 5660 5662 5663 5664 5664 5665 5665 5662 5661 5662 5662 5665 5668 5669 5668 5669 5670 5670 5672 5672 5673 5675 5676 5677 5678 5677 5677 5677 5677 5678 5678 5678 5679 5678 5679 5680 5680 5679 5681 5682 5682 5682 5683 5682 5680 5679 5679 5680 5679 5679 5679 5677 5676 5675 5676 5677 5677 5677
5628 5629 5630 5631 5632 5633 5633 5633 5634 5636 5637 5637 5638 5639 5641 5642 5644 5645 5644 5645 5645 5643 5645 5649 5650 5650 5652 5654 5654 5654 5654 5656 5658 5659 5659 5659 5660 5659 5658 5657 5657 5659 5663 5663 5663 5664 5664 5665 5666 5666 5667 5669 5670 5670 5671 5671 5672 5672 5672 5673 5673 5674 5674 5673 5673 5675 5675 5674 5676 5677 5677 5678 5679 5678 5676 5676 5675 5674 5674 5674 5674 5674 5673 5671 5671 5673 5672 5672
5623 5624 5625 5627 5627 5628 5629 5630 5631 5632 5632 5633 5634 5635 5636 5638 5639 5640 5640 5640 5640 5639 5641 5643 5643 5646 5648 5649 5648 5647 5647 5649 5652 5653 5654 5654 5654 5655 5655 5653 5653 5654 5656 5657 5658 5658 5658 5659 5659 5660 5660 5662 5663 5664 5664 5665 5665 5666 5667 5668 5668 5668 5668 5667 5667 5669 5668 5668 5670 5671 5671 5673 5674 5672 5670 5671 5670 5670 5669 5669 5669 5670 5669 5668 5667 5668 5668 5668
5619 5620 5621 5622 5622 5623 5624 5626 5627 5628 5627 5628 5629 5630 5631 5632 5633 5635 5636 5635 5633 5634 5636 5637 5638 5640 5642 5643 5642 5640 5640 5643 5646 5648 5649 5650 5649 5650 5651 5650 5649 5650 5650 5651 5652 5652 5653 5653 5653 5653 5654 5655 5657 5657 5658 5658 5658 5659 5661 5661 5661 5661 5661 5661 5662 5662 5662 5662 5664 5664 5664 5667 5667 5665 5665 5665 5666 5666 5665 5665 5664 5663 5663 5663 5662 5662 5663 5664
5615 5615 5616 5617 5617 5618 5620 5621 5621 5622 5622 5623 5624 5624 5625 5627 5628 5629 5630 5628 5627 5629 5631 5632 5633 5635 5636 5637 5636 5634 5635 5639 5641 5642 5643 5644 5644 5645 5645 5645 5646 5646 5646 5646 5647 5647 5648 5648 5647 5648 5648 5649 5651 5651 5651 5651 5651 5652 5653 5653 5654 5655 5655 5656 5657 5656 5655 5656 5657 5657 5658 5660 5659 5657 5658 5658 5659 5660 5660 5659 5658 5657 5656 5656 5656 5657 5657 5658
5610 5611 5612 5612 5613 5613 5615 5615 5615 5617 5617 5618 5619 5620 5620 5621 5622 5622 5623 5622 5623 5625 5626 5626 5629 5631 5631 5630 5630 5629 5632 5635 5636 5636 5637 5638 5639 5639 5639 5640 5641 5641 5641 5642 5642 5643 5643 5643 5643 5643 5642 5644 5645 5645 5645 5644 5644 5645 5647 5647 5648 5649 5649 5650 5650 5649 5649 5650 5649 5649 5651 5652 5650 5648 5649 5649 5650 5652 5652 5651 5650 5650 5649 5650 5651 5652 5651 5651